Location: Izdebno
(52.6670°N, 16.2170°E)
Time: 18:21:20
(UTC+02:00)

SR - Pass Details

Date: 27 February 2024
Orbit: 577 x 862 km, 66.7° (Epoch: 21 April)

Event Time Altitude Azimuth Distance (km) Brightness Sun altitude
Rises 21:10:56 0° 318° (NW) 3,314 ? -33.0°
Reaches altitude 10° 21:13:42 10° 328° (NNW) 2,335 ? -33.3°
Enters shadow 21:16:40 25° 355° (N) 1,475 ? -33.7°
Maximum altitude 21:18:27 32° 31° (NNE) 1,255 - -33.9°
Drops below altitude 10° 21:22:52 10° 95° (E) 2,152 - -34.5°
Sets 21:25:19 0° 105° (ESE) 3,016 - -34.8°
